Home > Weather > Cabinda > Past weeks

Flag for Angola Weather for the Past 2 Weeks in Cabinda, Angola

Now
79 °F

Passing clouds.


Feels Like: 83 °F
Forecast: 80 / 82 °F
Wind: 5 mph from Southeast

Location: Pointe Airport-Noire

Current Time: May 4, 2016 at 2:05:38 AM

Latest Report: May 4, 2016 at 1:00 AM


Visibility: 5 mi

Pressure: 29.86 "Hg

Humidity: 94%

Dew Point: 77 °F

Location of CabindaLocation

Historic Weather in Cabinda — Graph

°F

Cabinda Temperature Yesterday

Maximum temperature yesterday: 88 °F (at 11:00 AM)
Minimum temperature yesterday: 79 °F (at 4:00 AM)
Average temperature yesterday: 83 °F

High & Low Weather Summary for the Past Weeks

 TemperatureHumidityPressure
High90 °F (Apr 19, 12:00 PM)100% (Apr 19, 6:00 AM)29.98 "Hg (Apr 19, 6:00 AM)
Low75 °F (Apr 20, 12:00 PM)62% (May 2, 10:00 AM)29.71 "Hg (Apr 26, 5:00 PM)
Average83 °F85%29.83 "Hg
* Reported Apr 19 1:00 AM — May 4 1:00 AM, Cabinda, Weather by CustomWeather, © 2016

Note: Actual official high and low records may vary slightly from our data, if they occured in-between our weather recording intervals... More about our weather records

Advertising

Cabinda Weather History for the Previous 24 Hours

Scroll right to see more
 ConditionsComfort  
Time TempWeatherWind HumidityBarometerVisibility
1:00 AM
Wed, May 4
79 °FPassing clouds.5 mph94%29.86 "Hg5 mi
12:00 AM81 °FPassing clouds.3 mph89%29.89 "Hg5 mi
11:00 PM
Tue, May 3
81 °FPassing clouds.5 mph89%29.89 "Hg5 mi
10:00 PM82 °FThunderstorms. Passing clouds.6 mph84%29.89 "Hg5 mi
9:00 PM82 °FThunderstorms. Passing clouds.7 mph89%29.89 "Hg5 mi
8:00 PM82 °FPassing clouds.7 mph84%29.86 "Hg5 mi
7:00 PM82 °FPassing clouds.6 mph84%29.83 "Hg5 mi
6:00 PM82 °FPartly sunny.7 mph84%29.80 "HgN/A
5:00 PM82 °FScattered clouds.6 mph79%29.80 "HgN/A
4:00 PM86 °FPartly sunny.8 mph70%29.80 "HgN/A
3:00 PM84 °FPartly sunny.7 mph74%29.80 "HgN/A
2:00 PM88 °FPartly sunny.8 mph62%29.83 "HgN/A
1:00 PM86 °FBroken clouds.9 mph70%29.86 "HgN/A
12:00 PM86 °FBroken clouds.12 mph70%29.89 "HgN/A
11:00 AM88 °FBroken clouds.7 mph66%29.89 "HgN/A
10:00 AM86 °FBroken clouds.9 mph75%29.89 "HgN/A
9:00 AM84 °FScattered clouds.8 mph79%29.89 "Hg5 mi
8:00 AM81 °FScattered clouds.9 mph89%29.89 "Hg5 mi
7:00 AM79 °FScattered clouds.5 mph94%29.86 "Hg4 mi
6:00 AM79 °FPartly cloudy.7 mph94%29.86 "Hg5 mi
5:00 AM81 °FPartly cloudy.7 mph94%29.83 "Hg5 mi
4:00 AM79 °FPartly cloudy.7 mph94%29.83 "Hg5 mi
3:00 AM81 °FPartly cloudy.6 mph94%29.83 "Hg5 mi
2:00 AM81 °FPartly cloudy.5 mph94%29.83 "Hg5 mi
Weather by CustomWeather, © 2016

See weather overviewHow to use our weather pages